This is the latest recevied weather packets stored in our database for station/object SK4BW-10. If no packets are shown the sender has not sent any weather packets the latest 10 day(s).
| Time | Temp. | Humidity | Pressure | Rain* | Wind** | Luminosity | Snow |
|---|---|---|---|---|---|---|---|
| 1778184995 | 7.22° C | 27% | 1017.9 hPa | - | - | - | - |
| 1778184094 | 6.67° C | 30% | 1017.7 hPa | - | - | - | - |
| 1778183193 | 6.67° C | 32% | 1017.6 hPa | - | - | - | - |
| 1778182293 | 7.22° C | 29% | 1017.3 hPa | - | - | - | - |
| 1778181392 | 7.78° C | 28% | 1017.2 hPa | - | - | - | - |
| 1778180491 | 7.78° C | 30% | 1017 hPa | - | - | - | - |
| 1778179590 | 7.78° C | 30% | 1016.9 hPa | - | - | - | - |
| 1778178690 | 8.33° C | 31% | 1016.7 hPa | - | - | - | - |
| 1778177789 | 8.89° C | 29% | 1016.6 hPa | - | - | - | - |
| 1778176888 | 8.89° C | 28% | 1016.4 hPa | - | - | - | - |
| 1778175987 | 8.89° C | 28% | 1016.2 hPa | - | - | - | - |
| 1778175087 | 9.44° C | 27% | 1016.1 hPa | - | - | - | - |
| 1778174186 | 10° C | 28% | 1015.9 hPa | - | - | - | - |
| 1778173286 | 11.11° C | 26% | 1015.9 hPa | - | - | - | - |
| 1778172385 | 10° C | 31% | 1015.8 hPa | - | - | - | - |
| 1778171485 | 10.56° C | 27% | 1015.7 hPa | - | - | - | - |
| 1778170584 | 11.11° C | 35% | 1015.6 hPa | - | - | - | - |
| 1778169684 | 11.67° C | 34% | 1015.5 hPa | - | - | - | - |
| 1778168783 | 11.11° C | 24% | 1015.5 hPa | - | - | - | - |
| 1778167882 | 11.11° C | 24% | 1015.4 hPa | - | - | - | - |
| 1778166981 | 10.56° C | 27% | 1015.3 hPa | - | - | - | - |
| 1778166081 | 11.67° C | 32% | 1015.2 hPa | - | - | - | - |
| 1778165181 | 10° C | 31% | 1015.3 hPa | - | - | - | - |
| 1778164280 | 11.11° C | 29% | 1015.2 hPa | - | - | - | - |
| 1778163379 | 12.22° C | 34% | 1015.1 hPa | - | - | - | - |
* Rain since midnight (hover to see other rain measurements)
** Current wind speed in m/s (hover to see current wind gust speed)